Погода в Виндрее

Россия / Республика Мордовия     54°15′24″N   42°59′08″E
темп.,
°C
ветер,
м/с
пор.,
м/с
влажн.,
%
обл.,
%
осадки,
мм/ч
давл.,
гПа
погр.,
м
12 апреля, пн
пн1200:00+5св41172100 0.0 1032303
03:00+5всв41276100 0.0 1033388
06:00+5всв51282100 0.0 1033435
09:00+8в61278100 0.0 1033481
12:00+12в587199 0.0 1033625
15:00+14в586793 0.0 1032702
18:00+13в497785 0.0 1031406
21:00+10в41293100 0.0 1031270
13 апреля, вт
вт1300:00+9вюв41192100 0.0 1031211
03:00+8юв3108791 0.0 1031184
06:00+7юв3107982 0.0 1031171
09:00+14ююв5105244 0.0 1031409
12:00+18ююв573640 0.0 1030949
15:00+19ююв57316 0.0 10291507
18:00+16юв38475 0.0 1028204
21:00+11юв3116263 0.0 1029183
14 апреля, ср
ср1400:00+9юв39677 0.0 1028134
03:00+8юв377475 0.0 1028112
06:00+7юв377779 0.0 1027139
09:00+13юв47537 0.0 1027359
12:00+17юв463731 0.0 1025959
15:00+18ююв563172 0.0 10231385
18:00+15юв374630 0.0 1022142
21:00+11юв386025 0.0 1022116
15 апреля, чт
чт1500:00+9юв35660 0.0 102180
03:00+8юв34720 0.0 102146
06:00+7юв23760 0.0 102160
09:00+13ююв34570 0.0 1020358
12:00+17ююв33440 0.0 10191024
15:00+19ююв23380 0.0 10181724
18:00+16юв22514 0.0 101718
21:00+12юв22624 0.0 101722
16 апреля, пт
пт1600:00+11юв22645 0.0 101613
03:00+9юв22655 0.0 101610
06:00+9вюв22675 0.0 101516
09:00+15юв125151 0.0 1015311
12:00+19в114295 0.0 10151165
15:00+19св233762 0.0 10152174
18:00+15ссв7116243 0.0 1016905
21:00+7св7147897 0.0 1019686